Tracking 30074 objects as of 13-Jan-2025
HD Live streaming from Space Station
objects crossing your sky now

RADUGA 6

Track RADUGA 6 now!
RADUGA 6 is classified as:


NORAD ID: 11708
Int'l Code: 1980-016A
Perigee: 35,764.9 km
Apogee: 35,782.2 km
Inclination: 7.0 °
Period: 1,435.1 minutes
Semi major axis: 42144 km
RCS: 1.2589 m2 (large)
Launch date: February 20, 1980
Source: Commonwealth of Independent States (former USSR) (CIS)
Launch site: TYURATAM MISSILE AND SPACE COMPLEX (TTMTR)
Your satellite tracking list
Your tracking list is empty




NASA's NSSDC Master Catalog

Two Line Element Set (TLE):
1 11708U 80016A   25012.89355139 -.00000060  00000-0  00000-0 0  9992
2 11708   6.9961 291.8490 0002054 295.5565 278.2735  1.00343758116947
Source of the keplerian elements: AFSPC